This is the latest recevied weather packets stored in our database for station/object KB7STN. If no packets are shown the sender has not sent any weather packets the latest 10 day(s).
| Time | Temp. | Humidity | Pressure | Rain* | Wind** | Luminosity | Snow |
|---|---|---|---|---|---|---|---|
| 1778099234 | 14.44° C | 30% | 1014 hPa | 0 mm | - | - | - |
| 1778098934 | 14.44° C | 30% | 1014.1 hPa | 0 mm | - | - | - |
| 1778098634 | 14.44° C | 29% | 1014.1 hPa | 0 mm | - | - | - |
| 1778098334 | 13.89° C | 31% | 1014.1 hPa | 0 mm | - | - | - |
| 1778098034 | 13.89° C | 28% | 1014.2 hPa | 0 mm | - | - | - |
| 1778097734 | 13.89° C | 29% | 1014.1 hPa | 0 mm | - | - | - |
| 1778097434 | 13.89° C | 29% | 1014 hPa | 0 mm | - | - | - |
| 1778097134 | 13.89° C | 27% | 1014 hPa | 0 mm | - | - | - |
| 1778096834 | 13.89° C | 28% | 1014.1 hPa | 0 mm | - | - | - |
| 1778096535 | 13.89° C | 29% | 1014 hPa | 0 mm | - | - | - |
| 1778096235 | 13.33° C | 29% | 1014.1 hPa | 0 mm | - | - | - |
| 1778095935 | 13.33° C | 31% | 1013.9 hPa | 0 mm | - | - | - |
| 1778095635 | 13.33° C | 27% | 1014.1 hPa | 0 mm | - | - | - |
| 1778095334 | 13.33° C | 28% | 1014.1 hPa | 0 mm | - | - | - |
| 1778095035 | 13.33° C | 31% | 1014.2 hPa | 0 mm | - | - | - |
| 1778094735 | 12.78° C | 29% | 1014.1 hPa | 0 mm | - | - | - |
| 1778094435 | 12.78° C | 29% | 1014 hPa | 0 mm | - | - | - |
| 1778094135 | 12.78° C | 27% | 1014.1 hPa | 0 mm | - | - | - |
| 1778093835 | 12.78° C | 27% | 1014.2 hPa | 0 mm | - | - | - |
| 1778093535 | 12.78° C | 29% | 1014 hPa | 0 mm | - | - | - |
| 1778093235 | 12.78° C | 29% | 1014.1 hPa | 0 mm | - | - | - |
| 1778092935 | 12.22° C | 28% | 1014.1 hPa | 0 mm | - | - | - |
| 1778092635 | 12.22° C | 28% | 1014.2 hPa | 0 mm | - | - | - |
| 1778092335 | 12.22° C | 27% | 1014.3 hPa | 0 mm | - | - | - |
| 1778092035 | 12.22° C | 30% | 1014.2 hPa | 0 mm | - | - | - |
* Rain latest hour (hover to see other rain measurements)
** Current wind speed in m/s (hover to see current wind gust speed)